Regional Weather Roundup
Issued by NWS

Home | Current Version | Previous Version | Graphics & Text | Print | Product List | Glossary On
Versions: 1 2 3 4 5 6 7 8 9 10 11 12 13 14 15 16 17 18 19 20 21 22 23 24 25 26 27 28 29 30 31 32 33 34 35 36 37 38 39 40 41 42 43 44 45 46 47 48 49 50
976
ASUS43 KIND 181359
RWRIN

WEATHER ROUNDUP FOR INDIANA
NATIONAL WEATHER SERVICE INDIANAPOLIS IN
900 AM EST THU JAN 18 2018

NOTE: "FAIR" INDICATES FEW OR NO CLOUDS BELOW 12,000 FEET WITH NO
SIGNIFICANT WEATHER AND/OR OBSTRUCTIONS TO VISIBILITY.

* - STATION DOES NOT REPORT WEATHER SUCH AS PRECIPITATION OR FOG.

+ - STATION NOT QUALITY CONTROLLED BY THE NATIONAL WEATHER SERVICE.
    USE DATA WITH CAUTION...ESPECIALLY DEWPOINT AND RELATIVE
    HUMIDITY OBSERVATIONS.

INZ001>003-010>013-019-020-181500-
NORTHWEST INDIANA

CITY           SKY/WX    TMP DP  RH WIND       PRES   REMARKS
KNOX *+        FAIR      16  10  79 SW14      30.20S WCI   1
MICHIGAN CITY+ FAIR      18  10  73 SW15G22   30.17F WCI   3
MONTICELLO +   FAIR      15   8  72 SW16      30.24F WCI  -1

$$

LMZ046-743>745-181500-
SOUTHERN LAKE MICHIGAN

STATION/POSITION TIME  TEMP    WIND        PRES    WAVE
                       AIR SEA DIR/SP/G            HT
                 (UTC) (F)     (DEG/KT/KT) (MB)    (FT)
BURNS HARBOR     1340   16     220/ 15/ 20 1022.0F
MICHIGAN CITY    1330   16     200/ 16/ 18   N/A

$$

INZ004-005-014>016-021>024-181500-
NORTH CENTRAL INDIANA

CITY           SKY/WX    TMP DP  RH WIND       PRES   REMARKS
ELKHART        FAIR      16   9  73 W15       30.15S WCI   1
GOSHEN         FAIR      15   8  73 SW18G28   30.16R WCI  -2
PERU/GRISSOM   FAIR      15  10  78 W18       30.22S WCI  -1
SOUTH BEND     FAIR      13   7  77 SW15      30.15S WCI  -3

$$

INZ006>009-017-018-025>027-181500-
NORTHEAST INDIANA

CITY           SKY/WX    TMP DP  RH WIND       PRES   REMARKS
FORT WAYNE     FAIR      17   9  70 SW22      30.19S WCI   0
KENDALLVILLE + FAIR      15   9  77 W20G25    30.13S WCI  -3

$$

INZ028-029-035-036-043>045-051>053-181500-
WEST CENTRAL INDIANA

CITY           SKY/WX    TMP DP  RH WIND       PRES   REMARKS
GREENCASTLE +  FAIR      12   5  73 SW7       30.33S WCI   2
LAFAYETTE      FAIR      15   8  73 SW13      30.28S WCI   1
TERRE HAUTE    FAIR      12   5  73 SW10      30.36F WCI  -1

$$

INZ030>032-037>040-046>048-054>057-064-065-181500-
CENTRAL INDIANA

CITY           SKY/WX    TMP DP  RH WIND       PRES   REMARKS
ANDERSON       CLEAR     12   7  79 SW12      30.27  WCI  -2
COLUMBUS       CLEAR     10   5  79 S9        30.37F WCI  -2
GREENWOOD *+   FAIR      16   8  71 SW12      30.32F WCI   2
INDIANAPOLIS   FAIR      13   6  74 SW17      30.32S WCI  -4
-EAGLE CREEK   FAIR      13   6  74 SW8       30.30S WCI   2
MT COMFORT *+  FAIR      14  10  85 SW13      30.29F WCI   0
SHELBYVILLE    FAIR      10   4  76 S14       30.33S WCI  -6

$$

INZ033-034-041-042-049-050-058-059-181500-
EAST CENTRAL INDIANA

CITY           SKY/WX    TMP DP  RH WIND       PRES   REMARKS
MUNCIE         FAIR      15   6  67 SW15      30.25R WCI   0
RICHMOND +     FAIR      12   7  79 SW15      30.27F WCI  -4

$$

INZ060-061-067>069-081>083-085>088-181500-
SOUTHWEST INDIANA

CITY           SKY/WX    TMP DP  RH WIND       PRES   REMARKS
EVANSVILLE     FAIR      11   9  92 SW7       30.46F WCI   0
HUNTINGBURG +  FAIR      10   7  87 S9        30.46S WCI  -3

$$

INZ062-063-066-070>080-084-089>092-181500-
SOUTH CENTRAL AND SOUTHEAST INDIANA

CITY           SKY/WX    TMP DP  RH WIND       PRES   REMARKS
BLOOMINGTON    FAIR      14   6  70 SW12      30.36S WCI   0
FRENCH LICK *+ FAIR      12   5  73 SW6       30.41S WCI   3
MADISON *+     FAIR      14   9  79 SW8       30.41S WCI   3
SEYMOUR +      FAIR      14   5  67 S3        30.40S

$$





USA.gov is the U.S. government's official web portal to all federal, state and local government web resources and services.